Location: *
(42.3442°N, 9.2072°E)
Time: 10:17:16
(UTC+00:00)

Meteor 2-10 Rocket - Pass Details

Date: 14 August 2020
Orbit: 734 x 884 km, 81.2° (Epoch: 22 September)

Event Time Altitude Azimuth Distance (km) Brightness Sun altitude
Rises 02:55:39 0° 154° (SSE) 3,215 6.6 -16.0°
Reaches altitude 10° 02:58:19 10° 141° (SE) 2,316 6.0 -15.6°
Maximum altitude 03:02:29 25° 88° (E) 1,574 5.8 -15.0°
Drops below altitude 10° 03:06:47 10° 35° (NE) 2,409 7.3 -14.4°
Sets 03:09:36 0° 23° (NNE) 3,373 7.9 -13.9°
